Home > Weather > La Plata > Past weeks

Flag for Argentina Weather for the Past 2 Weeks in La Plata, Buenos Aires, Argentina

Now
86 °F

Clear.


Feels Like: 88 °F
Forecast: N/A
Wind: 5 mph from West

Location: Ezeiza Aerodrome

Current Time: Feb 9, 2016 at 8:46:04 PM

Latest Report: Feb 9, 2016 at 8:00 PM


Visibility: 10 mi

Pressure: 29.86 "Hg

Humidity: 52%

Dew point: 66 °F

Location of La PlataLocation

Historic Weather in La Plata — Graph

°F

La Plata Temperature Yesterday

Maximum temperature yesterday: 84 °F (at 2:00 PM)
Minimum temperature yesterday: 70 °F (at 2:00 AM)
Average temperature yesterday: 77 °F

High & Low Weather Summary for the Past Weeks

 TemperatureHumidityPressure
High93 °F (Feb 5, 2:00 PM)100% (Jan 30, 4:00 AM)30.21 "Hg (Jan 30, 4:00 AM)
Low54 °F (Feb 1, 6:00 AM)26% (Jan 27, 4:00 PM)29.74 "Hg (Jan 25, 7:00 PM)
Average75 °F67%29.95 "Hg
* Reported Jan 25 7:00 PM — Feb 9 7:00 PM, La Plata, Weather by CustomWeather, © 2016

Note: Actual official high and low records may vary slightly from our data, if they occured in-between our weather recording intervals... More about our weather records

Advertising

La Plata Weather History for the Previous 24 Hours

 ConditionsComfort  
Time TempWeatherWind HumidityBarometerVisibility
7:00 PM
Tue, Feb 9
90 °FClear.7 mph43%29.86 "Hg10 mi
6:00 PM91 °FPassing clouds.10 mph34%29.83 "HgN/A
5:00 PM93 °FSunny.12 mph47%29.86 "Hg10 mi
4:00 PM91 °FPassing clouds.13 mph36%29.86 "HgN/A
3:00 PM91 °FPassing clouds.9 mph46%29.86 "HgN/A
2:00 PM90 °FPassing clouds.12 mph49%29.86 "HgN/A
1:00 PM90 °FPassing clouds.10 mph52%29.89 "HgN/A
12:00 PM86 °FPassing clouds.10 mph62%29.89 "HgN/A
11:00 AM82 °FPassing clouds.9 mph70%29.89 "HgN/A
10:00 AM79 °FPassing clouds.7 mph79%29.89 "HgN/A
9:00 AM73 °FMild.N/A89%29.89 "HgN/A
8:00 AM68 °FSunny.7 mph94%29.86 "Hg10 mi
7:00 AM64 °FSunny.5 mph94%29.86 "Hg10 mi
6:00 AM64 °FSunny.7 mph100%29.83 "Hg10 mi
5:00 AM64 °FClear.5 mph94%29.80 "Hg10 mi
4:00 AM68 °FPassing clouds.3 mph88%29.80 "HgN/A
3:00 AM66 °FLight rain. Mostly cloudy.9 mph94%29.83 "Hg6 mi
2:00 AM72 °FRain. Fog.8 mph88%29.86 "Hg1 mi
1:00 AM73 °FPartly cloudy.5 mph89%29.83 "HgN/A
12:00 AM75 °FClear.5 mph83%29.83 "Hg10 mi
11:00 PM
Mon, Feb 8
75 °FPassing clouds.5 mph89%29.80 "HgN/A
10:00 PM77 °FPassing clouds.5 mph83%29.80 "HgN/A
9:00 PM77 °FPartly cloudy.5 mph83%29.80 "HgN/A
8:00 PM81 °FPartly cloudy.8 mph70%29.77 "HgN/A
Weather by CustomWeather, © 2016

See weather overviewHow to use our weather pages